AZERSPACE 1

Last updated on Jan. 15, 2021, 6:31 a.m. UTC

1 39079U 13006B   21014.82202196  .00000126  00000-0  00000-0 0  9995
2 39079   0.0278 298.6996 0001619  31.6585 126.0410  1.00273766 28962
UTC
Height (km)
Latitude
Longitude
Inclination
Orbital Period
UTC large
Height (km)
Speed (km/s)
/
Latitude / Longitude
Inclination (degrees)
Orbital Period (minutes)
Azimuth
Elevation
Range (km)
Doppler Factor
iOS Compass Heading
iOS Angle

Next 30 passes for location: Hong Kong

Rise time Rise Azimuth (degrees) Set time Set Azimuth (degrees) Duration Max altitude (degrees)

No matching passes for this satellites